{"data":{"norad_id":64135,"intl_designator":"2025-111N","name":"STARLINK-11712 [DTC]","alt_names":[],"object_type":"PAYLOAD","status":"ACTIVE","operator":null,"country":"US","launch_date":"2025-05-24","launch_site_code":"AFETR","launch_vehicle":null,"mission":null,"orbit_class":"UNKNOWN","rcs_meters":null,"size_class":null,"mass_kg":null,"dimensions":null,"purposes":["comms"],"wikipedia_slug":null,"has_3d_model":false,"image_url":null,"decayed_at":null,"tle_current":{"epoch":"2026-09-20T22:43:38.414496Z","epoch_age_seconds":101861,"freshness":"FRESH","line1":"1 64135U 25111N   26263.94697239  .00106714  00000+0  82299-3 0  9998","line2":"2 64135  42.9970 237.2924 0000599 283.8078  76.2723 15.70884166 77344","mean_motion":15.70884166,"eccentricity":5.99e-5,"inclination_deg":42.997,"raan_deg":237.2924,"arg_perigee_deg":283.8078,"mean_anomaly_deg":76.2723,"bstar":0.00082299,"rev_number":7734,"period_min":91.668121123579,"perigee_km":355.96543293317,"apogee_km":356.77222673158,"semimajor_km":6734.5058298324,"source":"CELESTRAK","updated_at":"2026-09-21T09:00:35.235067Z"}}}